Maple Lake, MN

4:37 PM CDT on October 21, 2017 (GMT -0500)
Maple Lake Municipal

Weather History for KMGG - May, 2013

Change the Weather History Date:

Sunday, May 5, 2013

  Actual Average (KSTC) Record (KSTC)
Temperature  
Mean Temperature 52 °F -  
Max Temperature 67 °F 64 °F 91 °F (2000)
Min Temperature 38 °F 39 °F 25 °F (1967)
Degree Days  
Heating Degree Days 13    
Growing Degree Days 2 (Base 50)    
Moisture  
Dew Point 43 °F    
Average Humidity 81    
Maximum Humidity 95    
Minimum Humidity 55    
Precipitation  
Precipitation 0.00 in - - ()
Sea Level Pressure  
Sea Level Pressure 30.15 in    
Wind  
Wind Speed 6 mph (North)    
Max Wind Speed 9 mph    
Max Gust Speed -    
Visibility 10 miles    
Events      
Averages and records for this station are not official NWS values.
T = Trace of Precipitation, MM = Missing Value Source: NWS Daily Summary

Daily Weather History Graph

Daily Weather History Graph

Search for Another Location

Airport or City:

Trip Planner

Search our weather history database for the weather conditions in past years. The results will help you decide how hot, cold, wet, or windy it might be!

Date:

Astronomy

May. 05, 2013 Rise Set
Actual Time 5:58 AM CDT 8:27 PM CDT
Civil Twilight 5:25 AM CDT 9:00 PM CDT
Nautical Twilight 4:44 AM CDT 9:42 PM CDT
Astronomical Twilight 3:57 AM CDT 10:29 PM CDT
Moon 3:41 AM CDT (5/5) 4:17 PM CDT (5/5)
Length of Visible Light 15h 35m
Length of Day
14h 28m
Waning Crescent, 18% of the Moon is Illuminated
May 5
Waning Crescent
May 9
New
May 17
First Quarter
May 24
Full
May 31
Last Quarter

Hourly Weather History & Observations

Time (CDT) Temp. Windchill Dew Point Humidity Pressure Visibility Wind Dir Wind Speed Gust Speed Precip Events Conditions
12:16 AM 39.4 °F 34.5 °F 36.7 °F 90% 30.19 in 10.0 mi NE 6.9 mph - N/A   Overcast
12:36 AM 39.2 °F 35.0 °F 36.5 °F 90% 30.19 in 10.0 mi NE 5.8 mph - N/A   Overcast
12:57 AM 39.2 °F 35.0 °F 36.5 °F 90% 30.19 in 10.0 mi North 5.8 mph - N/A   Overcast
1:16 AM 38.8 °F 33.2 °F 36.5 °F 91% 30.19 in 10.0 mi NE 8.1 mph - N/A   Mostly Cloudy
1:37 AM 38.8 °F 35.4 °F 36.5 °F 91% 30.19 in 10.0 mi NE 4.6 mph - N/A   Overcast
1:56 AM 38.8 °F 35.4 °F 36.5 °F 91% 30.19 in 10.0 mi NNE 4.6 mph - N/A   Overcast
2:16 AM 38.8 °F 35.4 °F 36.5 °F 91% 30.18 in 10.0 mi NNE 4.6 mph - N/A   Overcast
2:36 AM 38.5 °F 35.0 °F 36.5 °F 93% 30.17 in 10.0 mi NNE 4.6 mph - N/A   Overcast
2:56 AM 38.5 °F 33.4 °F 36.5 °F 93% 30.17 in 10.0 mi North 6.9 mph - N/A   Overcast
3:16 AM 38.5 °F 32.7 °F 36.5 °F 93% 30.17 in 10.0 mi North 8.1 mph - N/A   Overcast
3:36 AM 38.5 °F 34.1 °F 36.5 °F 93% 30.17 in 10.0 mi North 5.8 mph - N/A   Overcast
3:56 AM 38.3 °F 33.2 °F 36.5 °F 93% 30.17 in 10.0 mi North 6.9 mph - N/A   Overcast
4:17 AM 38.3 °F 33.9 °F 36.5 °F 93% 30.17 in 10.0 mi North 5.8 mph - N/A   Overcast
4:36 AM 38.3 °F 33.9 °F 36.5 °F 93% 30.17 in 10.0 mi North 5.8 mph - N/A   Overcast
4:56 AM 38.3 °F 33.9 °F 36.7 °F 94% 30.17 in 10.0 mi North 5.8 mph - N/A   Overcast
5:16 AM 38.3 °F 33.9 °F 36.7 °F 94% 30.17 in 10.0 mi North 5.8 mph - N/A   Overcast
5:36 AM 38.3 °F 34.8 °F 36.7 °F 94% 30.18 in 10.0 mi North 4.6 mph - N/A   Overcast
5:56 AM 38.3 °F 33.2 °F 36.7 °F 94% 30.18 in 10.0 mi North 6.9 mph - N/A   Overcast
6:16 AM 38.3 °F 33.2 °F 36.7 °F 94% 30.18 in 10.0 mi North 6.9 mph - N/A   Overcast
6:36 AM 38.3 °F 33.9 °F 36.7 °F 94% 30.18 in 10.0 mi North 5.8 mph - N/A   Overcast
6:57 AM 38.3 °F 33.2 °F 36.7 °F 94% 30.18 in 10.0 mi North 6.9 mph - N/A   Overcast
7:16 AM 38.5 °F 34.1 °F 37.2 °F 95% 30.18 in 7.0 mi North 5.8 mph - N/A   Light Drizzle
7:36 AM 38.8 °F 34.6 °F 37.4 °F 95% 30.18 in 10.0 mi North 5.8 mph - N/A   Overcast
7:57 AM 39.4 °F 34.5 °F 37.8 °F 94% 30.19 in 10.0 mi North 6.9 mph - N/A   Overcast
8:16 AM 39.7 °F 35.6 °F 37.9 °F 93% 30.19 in 10.0 mi North 5.8 mph - N/A   Overcast
8:36 AM 40.3 °F 34.9 °F 38.3 °F 93% 30.19 in 10.0 mi North 8.1 mph - N/A   Overcast
8:56 AM 40.5 °F 35.1 °F 38.3 °F 92% 30.19 in 10.0 mi North 8.1 mph - N/A   Overcast
9:16 AM 41.0 °F 36.4 °F 38.5 °F 91% 30.19 in 10.0 mi North 6.9 mph - N/A   Overcast
9:36 AM 41.4 °F 36.8 °F 39.2 °F 92% 30.19 in 10.0 mi North 6.9 mph - N/A   Overcast
9:56 AM 42.1 °F 37.1 °F 39.2 °F 90% 30.19 in 10.0 mi North 8.1 mph - N/A   Overcast
10:16 AM 42.8 °F 39.3 °F 39.7 °F 89% 30.19 in 10.0 mi North 5.8 mph - N/A   Overcast
10:36 AM 43.7 °F 40.3 °F 40.1 °F 87% 30.19 in 10.0 mi NE 5.8 mph - N/A   Overcast
11:02 AM 45.3 °F 44.0 °F 41.0 °F 85% 30.18 in 10.0 mi NE 3.5 mph - N/A   Overcast
11:16 AM 46.0 °F 44.8 °F 41.2 °F 83% 30.18 in 10.0 mi NE 3.5 mph - N/A   Overcast
11:37 AM 47.3 °F - 41.7 °F 81% 30.18 in 10.0 mi NNE 4.6 mph - N/A   Overcast
11:56 AM 48.2 °F - 42.3 °F 80% 30.17 in 10.0 mi North 3.5 mph - N/A   Overcast
12:16 PM 49.5 °F - 42.8 °F 78% 30.17 in 10.0 mi NW 4.6 mph - N/A   Scattered Clouds
12:37 PM 50.9 °F - 43.9 °F 77% 30.17 in 10.0 mi NW 5.8 mph - N/A   Clear
12:56 PM 53.2 °F - 44.8 °F 73% 30.16 in 10.0 mi NNW 5.8 mph - N/A   Clear
1:16 PM 53.8 °F - 45.0 °F 72% 30.16 in 10.0 mi North 5.8 mph - N/A   Scattered Clouds
1:36 PM 55.8 °F - 46.2 °F 70% 30.15 in 10.0 mi NNW 6.9 mph - N/A   Overcast
1:56 PM 57.0 °F - 46.8 °F 69% 30.14 in 10.0 mi NNE 5.8 mph - N/A   Mostly Cloudy
2:17 PM 59.0 °F - 47.3 °F 65% 30.14 in 10.0 mi North 4.6 mph - N/A   Scattered Clouds
2:36 PM 59.9 °F - 47.7 °F 64% 30.14 in 10.0 mi WNW 5.8 mph - N/A   Scattered Clouds
2:56 PM 61.0 °F - 48.0 °F 62% 30.13 in 10.0 mi North 4.6 mph - N/A   Scattered Clouds
3:17 PM 61.3 °F - 47.8 °F 61% 30.12 in 10.0 mi NNE 4.6 mph - N/A   Clear
3:36 PM 62.6 °F - 48.4 °F 60% 30.11 in 10.0 mi North 4.6 mph - N/A   Clear
3:56 PM 63.7 °F - 48.7 °F 58% 30.10 in 10.0 mi North 4.6 mph - N/A   Clear
4:16 PM 63.1 °F - 48.6 °F 59% 30.10 in 10.0 mi NNE 6.9 mph - N/A   Clear
4:37 PM 63.7 °F - 48.7 °F 58% 30.10 in 10.0 mi NNW 5.8 mph - N/A   Mostly Cloudy
4:56 PM 64.4 °F - 49.3 °F 58% 30.10 in 10.0 mi North 5.8 mph - N/A   Overcast
5:16 PM 64.8 °F - 49.3 °F 57% 30.09 in 10.0 mi NNW 4.6 mph - N/A   Scattered Clouds
5:56 PM 65.8 °F - 49.3 °F 55% 30.09 in 10.0 mi North 3.5 mph - N/A   Scattered Clouds
6:16 PM 66.6 °F - 50.0 °F 55% 30.09 in 10.0 mi NNW 5.8 mph - N/A   Mostly Cloudy
6:36 PM 65.8 °F - 49.6 °F 56% 30.09 in 10.0 mi WNW 5.8 mph - N/A   Scattered Clouds
6:56 PM 65.8 °F - 49.6 °F 56% 30.09 in 10.0 mi NW 4.6 mph - N/A   Clear
7:17 PM 63.3 °F - 49.1 °F 60% 30.09 in 10.0 mi NW 9.2 mph - N/A   Scattered Clouds
7:36 PM 61.2 °F - 48.4 °F 63% 30.09 in 10.0 mi WNW 9.2 mph - N/A   Scattered Clouds
7:56 PM 60.3 °F - 48.7 °F 66% 30.09 in 10.0 mi WNW 5.8 mph - N/A   Clear
8:16 PM 59.5 °F - 48.6 °F 67% 30.10 in 10.0 mi Calm Calm - N/A   Clear
8:36 PM 56.5 °F - 48.4 °F 74% 30.09 in 10.0 mi Calm Calm - N/A   Clear
8:56 PM 54.7 °F - 47.7 °F 77% 30.10 in 10.0 mi Calm Calm - N/A   Clear
9:16 PM 54.7 °F - 47.8 °F 78% 30.10 in 10.0 mi Calm Calm - N/A   Clear
9:56 PM 53.4 °F - 48.2 °F 82% 30.10 in 10.0 mi WNW 5.8 mph - N/A   Clear
10:16 PM 51.4 °F - 47.3 °F 86% 30.10 in 10.0 mi WNW 4.6 mph - N/A   Clear
10:36 PM 50.9 °F - 47.5 °F 88% 30.10 in 10.0 mi WNW 4.6 mph - N/A   Clear
10:56 PM 50.9 °F - 47.3 °F 87% 30.10 in 10.0 mi WNW 5.8 mph - N/A   Clear
11:16 PM 50.0 °F - 46.6 °F 88% 30.10 in 10.0 mi WNW 4.6 mph - N/A   Clear
11:36 PM 49.5 °F - 46.4 °F 89% 30.11 in 10.0 mi WNW 4.6 mph - N/A   Clear
11:56 PM 49.1 °F - 46.4 °F 90% 30.10 in 10.0 mi WNW 4.6 mph - N/A   Clear